This is the latest recevied weather packets stored in our database for station/object DO9LL-1. If no packets are shown the sender has not sent any weather packets the latest 10 day(s).
| Time | Temp. | Humidity | Pressure | Rain* | Wind** | Luminosity | Snow |
|---|---|---|---|---|---|---|---|
| 1777632443 | 20.56° C | 37% | 1025.4 hPa | 0 mm | - | - | - |
| 1777631839 | 20° C | 36% | 1025.6 hPa | 0 mm | - | - | - |
| 1777631255 | 20° C | 39% | 1025.6 hPa | 0 mm | - | - | - |
| 1777630652 | 19.44° C | 37% | 1025.8 hPa | 0 mm | - | - | - |
| 1777630048 | 20° C | 37% | 1025.8 hPa | 0 mm | - | - | - |
| 1777629445 | 19.44° C | 39% | 1025.9 hPa | 0 mm | - | - | - |
| 1777628841 | 19.44° C | 39% | 1026.1 hPa | 0 mm | - | - | - |
| 1777628237 | 18.89° C | 40% | 1026.3 hPa | 0 mm | - | - | - |
| 1777627654 | 18.89° C | 40% | 1026.3 hPa | 0 mm | - | - | - |
| 1777627051 | 18.89° C | 40% | 1026.3 hPa | 0 mm | - | - | - |
| 1777626447 | 17.78° C | 41% | 1026.4 hPa | 0 mm | - | - | - |
| 1777625843 | 17.78° C | 41% | 1026.5 hPa | 0 mm | - | - | - |
| 1777625239 | 17.22° C | 40% | 1026.6 hPa | 0 mm | - | - | - |
| 1777624655 | 17.22° C | 41% | 1026.5 hPa | 0 mm | - | - | - |
| 1777624052 | 16.67° C | 42% | 1026.5 hPa | 0 mm | - | - | - |
| 1777623448 | 16.67° C | 42% | 1026.6 hPa | 0 mm | - | - | - |
| 1777622844 | 15.56° C | 43% | 1026.6 hPa | 0 mm | - | - | - |
| 1777622240 | 15.56° C | 44% | 1026.6 hPa | 0 mm | - | - | - |
| 1777621636 | 15° C | 45% | 1026.5 hPa | 0 mm | - | - | - |
| 1777621053 | 15° C | 45% | 1026.5 hPa | 0 mm | - | - | - |
| 1777620454 | 14.44° C | 46% | 1026.6 hPa | 0 mm | - | - | - |
| 1777619846 | 14.44° C | 46% | 1026.6 hPa | 0 mm | - | - | - |
| 1777619243 | 13.89° C | 49% | 1026.6 hPa | 0 mm | - | - | - |
| 1777618639 | 13.33° C | 51% | 1026.7 hPa | 0 mm | - | - | - |
| 1777618055 | 13.33° C | 52% | 1026.7 hPa | 0 mm | - | - | - |
* Rain latest hour (hover to see other rain measurements)
** Current wind speed in m/s (hover to see current wind gust speed)